INTELSAT 33E DEB, 64395

Orbit data source: Space-Track

INTELSAT 33E DEB, 64395 is space debris in GEO originally from a launch on Wed, 24 Aug 2016 UTC launched from the French Guiana (FRGUI). Debris objects in space refer to the collection of defunct objects orbiting the Earth. Examples of debris include non-operational satellites, rocket bodies, and fragments generated from explosions, collisions, or faulty payload assembly.

Not visible in the next 10 days
Identifier
64395, 2016-053Z
Orbit
GEO
Last TLE update
2 days ago
Origin
Flag of UnknownINTELU (Unknown / ITSO)
Manufacturer
Boeing/ES
Mission
Spacecraft
Bus & Motor
Unknown
Mass
Unknown
Launch date (UTC)
2016-08-24 (9 years ago)
Launch vehicle
Unknown
Launch site
French Guiana (FRGUI)
Object type
Payload
Rocket body
Debris
Shape & HBR
Unknown
Radar Cross Section
RCS unknown

Expand to show TLE details & history

TLE from 2 days ago
0 INTELSAT 33E DEB
1 64395U 16053Z   25180.55165213  .00000027  00000-0  00000-0 0  9995
2 64395   1.6164 132.4693 0020617 313.8473  45.1958  0.99831196  2404
Epoch: 2025-06-29T13:14Z
TLE epoch observation values (Epoch: 2025-06-29T13:14:22.744Z)
Latitude
0.00001°
Longitude
15.23046°
Altitude
35,848.367 km
Speed
3.075 km/s
True Right ascension
08h 46m 47s
True Declination
0° 00' 00"
Sunlit
Object was in daylight at epoch
Visualization orbit readout
Latitude
1.53139°
Longitude
86.79177°
Altitude
35,948.989 km
Speed
3.067 km/s
Apparent Right ascension
13h 55m 27s
Apparent Declination
-3° 45' 38"
Sunlit
Object is in daylight
Visualization observer readout
Local Sidereal Time
05:45:28
Azimuth
70.764° E
Elevation
-26.952°
Doppler factor
1
Orbital elements
Apogee altitude
35,998.817 km
Perigee altitude
35,824.439 km
Semi-major axis
42,289.765 km
Eccentricity
0.00206
Inclination
1.6164°
RAAN
132.4693°
Arg. of periapsis
313.8473°
True anomaly
Unknown
Mean anomaly
45.1958°
Eccentric anomaly
Unknown
Mean motion
0.24957 °/min
Orbital period
1,442.49 mins
BSTAR
0
Loading historical data...
64395 neighbors
Loading maneuver chart data...
Loading SW <> Apogee altitude chart data...
Loading historical data...
Loading historical data...
Loading historical data...
Loading historical data...
Loading historical data...
Loading historical data...
Loading historical data...

INTELSAT 33E DEB Visibility

Observer location: undefined°, undefined°

INTELSAT 33E DEB is likely not visible in the next few days
Span
Click to sort rows by Start time (UTC) header in descending order
Start Az.
Max El. time (UTC)
Max El. Az.
Max El.
End time (UTC)
End Az.
|